Rochester, NY

8:19 PM EDT on April 25, 2015 (GMT -0400)
Greater Rochester International | | Change Station
CLOSE
Current Station
Airport
Location: Rochester,
Elevation: 554 ft
Nearby Weather Stations

Elev 554 ft 43.12 °N, 77.68 °W | Updated 25 minutes ago

Partly Cloudy
Partly Cloudy
47 °F
Feels Like 47 °F
N
0
Wind Variable Wind from North

Today
High -- | Low -- °F
--% Chance of Precip.
Yesterday
High -- | Low -- °F
Precip. -- in
6:12 AM 8:04 PM
Waxing Crescent, 50% visible
Pressure 29.82 in
Visibility 10.0 miles
Clouds Few 4000 ft
Scattered Clouds 25000 ft
Dew Point 23 °F
Humidity 39%
Rainfall 0.00 in
Snow Depth Not available.
UV 0 out of 12
Pollen 10.10 out of 12
Air Quality Not available.
Flu Activity Widespread
METAR KROC 252354Z 00000KT 10SM FEW040 SCT250 08/M05 A2979 RMK AO2 SLP097 T00831050 10100 20078 56007

More Conditions Fewer Conditions

Pressure 29.82 in
Visibility 10.0 miles
Clouds Few 4000 ft
Scattered Clouds 25000 ft
Dew Point 23 °F
Humidity 39%
Rainfall 0.00 in
Snow Depth Not available.
UV 0 out of 12
Pollen 10.10 out of 12
Air Quality Not available.
Flu Activity Widespread
METAR KROC 252354Z 00000KT 10SM FEW040 SCT250 08/M05 A2979 RMK AO2 SLP097 T00831050 10100 20078 56007

More Conditions Fewer Conditions

10-Day Weather Forecast

Almanac

Astronomy

Apr. 25, 2015 Rise Set
Actual Time
Civil Twilight
Nautical Twilight
Astronomical Twilight
Moon
Length of Visible Light
Length of Day
Tomorrow will be .
, % of the Moon is Illuminated

Today's Extremes

State Highs State Lows

Community

WunderPhotos

Upload Photos

1,816,855 photos uploaded!

WunderBlogs® & News

Nearby

Air Quality

  Air Quality AQ Index Pollutant
Not available.

Snow Depth

Station Depth Elevation

Earthquake Activity

City Distance Mag. Time & Date
Minimum magnitude displayed is 2.5.

Coastal Water Temperatures

Place Temperature

Stations

Nearby Weather Stations

Station Location Temp. Windchill Dew Point Humidity Wind Precip. Elev Updated Type